• In Latvia
  • List of Countries
  • For 7 days
  • Water Temperature
  • Satellite Maps
  • Weather Map
  • Weather Widgets
  • user-avatar
    Login

    Hourly Weather Mendoza

    Today, 20 January, Saturday

    Time Temperature Precipitation Wind Pressure Humidity
    00:00 +27°C° 0.2 mm 2 mps 698 mmHg 43%
    01:00 +27°C° 0 mm 2 mps 698 mmHg 43%
    02:00 +26°C° 0 mm 2 mps 698 mmHg 44%
    03:00 +26°C° 0 mm 2 mps 697 mmHg 44%
    04:00 +25°C° 0 mm 1 mps 697 mmHg 44%
    05:00 +26°C° 0 mm 2 mps 697 mmHg 41%
    06:00 +27°C° 0 mm 2 mps 698 mmHg 39%
    07:00 +28°C° 0 mm 2 mps 697 mmHg 36%
    08:00 +29°C° 0.1 mm 3 mps 697 mmHg 34%
    09:00 +30°C° 0.1 mm 3 mps 697 mmHg 32%
    10:00 +32°C° 0.1 mm 4 mps 697 mmHg 31%
    11:00 +33°C° 0.2 mm 4 mps 697 mmHg 30%
    12:00 +33°C° 0.2 mm 4 mps 697 mmHg 29%
    13:00 +34°C° 0.2 mm 5 mps 696 mmHg 28%
    14:00 +34°C° 0.6 mm 5 mps 696 mmHg 29%
    15:00 +34°C° 0.6 mm 5 mps 696 mmHg 30%
    16:00 +34°C° 0.6 mm 5 mps 696 mmHg 30%
    17:00 +33°C° 0.6 mm 4 mps 696 mmHg 33%
    18:00 +32°C° 0.6 mm 4 mps 696 mmHg 35%
    19:00 +30°C° 0.6 mm 3 mps 696 mmHg 37%
    20:00 +30°C° 0.6 mm 3 mps 697 mmHg 39%
    21:00 +29°C° 0.6 mm 3 mps 697 mmHg 41%
    22:00 +29°C° 0.6 mm 2 mps 697 mmHg 43%
    23:00 +28°C° 0.5 mm 2 mps 697 mmHg 45%

    Tomorrow, 21 January, Sunday

    Time Temperature Precipitation Wind Pressure Humidity
    00:00 +28°C° 0.5 mm 2 mps 696 mmHg 47%
    01:00 +27°C° 0.5 mm 2 mps 696 mmHg 49%
    02:00 +26°C° 0.2 mm 2 mps 696 mmHg 50%
    03:00 +26°C° 0.2 mm 2 mps 696 mmHg 51%
    04:00 +25°C° 0.2 mm 1 mps 695 mmHg 52%
    05:00 +26°C° 0.1 mm 1 mps 696 mmHg 49%
    06:00 +27°C° 0.1 mm 1 mps 696 mmHg 46%
    07:00 +27°C° 0.1 mm 1 mps 696 mmHg 43%
    08:00 +28°C° 0 mm 2 mps 696 mmHg 40%
    09:00 +30°C° 0 mm 2 mps 696 mmHg 37%
    10:00 +31°C° 0 mm 3 mps 696 mmHg 35%
    11:00 +33°C° 0.1 mm 3 mps 696 mmHg 33%
    12:00 +33°C° 0.1 mm 4 mps 695 mmHg 32%
    13:00 +34°C° 0.1 mm 4 mps 695 mmHg 31%
    14:00 +34°C° 0.3 mm 4 mps 695 mmHg 31%
    15:00 +34°C° 0.3 mm 4 mps 694 mmHg 31%
    16:00 +34°C° 0.3 mm 4 mps 694 mmHg 30%
    17:00 +34°C° 0.3 mm 3 mps 694 mmHg 31%
    18:00 +33°C° 0.3 mm 3 mps 694 mmHg 32%
    19:00 +31°C° 0.3 mm 3 mps 694 mmHg 33%
    20:00 +30°C° 0.8 mm 4 mps 694 mmHg 39%
    21:00 +29°C° 0.8 mm 5 mps 695 mmHg 45%
    22:00 +27°C° 0.8 mm 5 mps 695 mmHg 51%
    23:00 +27°C° 1.4 mm 6 mps 695 mmHg 53%

    Day after tomorrow, 22 January, Monday

    Time Temperature Precipitation Wind Pressure Humidity
    00:00 +26°C° 1.4 mm 6 mps 694 mmHg 56%
    01:00 +24°C° 1.4 mm 6 mps 694 mmHg 58%
    02:00 +25°C° 0 mm 5 mps 694 mmHg 57%
    03:00 +25°C° 0 mm 3 mps 694 mmHg 55%
    04:00 +25°C° 0 mm 2 mps 694 mmHg 53%
    05:00 +26°C° 0 mm 2 mps 694 mmHg 49%
    06:00 +26°C° 0 mm 2 mps 694 mmHg 44%
    07:00 +27°C° 0 mm 1 mps 694 mmHg 40%
    08:00 +28°C° 0 mm 2 mps 694 mmHg 38%
    09:00 +29°C° 0 mm 2 mps 694 mmHg 35%
    10:00 +31°C° 0 mm 2 mps 694 mmHg 33%
    11:00 +32°C° 0 mm 2 mps 694 mmHg 32%
    12:00 +34°C° 0 mm 2 mps 693 mmHg 30%
    13:00 +34°C° 0 mm 3 mps 693 mmHg 29%
    14:00 +35°C° 0 mm 3 mps 693 mmHg 28%
    15:00 +35°C° 0 mm 2 mps 692 mmHg 27%
    16:00 +35°C° 0 mm 2 mps 692 mmHg 26%
    17:00 +35°C° 0.2 mm 2 mps 692 mmHg 28%
    18:00 +34°C° 0.2 mm 2 mps 693 mmHg 30%
    19:00 +32°C° 0.2 mm 2 mps 693 mmHg 32%
    20:00 +31°C° 0.1 mm 2 mps 693 mmHg 33%
    21:00 +31°C° 0.1 mm 2 mps 694 mmHg 34%
    22:00 +30°C° 0.1 mm 3 mps 694 mmHg 35%
    23:00 +29°C° 0.3 mm 3 mps 694 mmHg 36%

    23 January, Tuesday

    Time Temperature Precipitation Wind Pressure Humidity
    00:00 +28°C° 0.3 mm 4 mps 693 mmHg 36%
    01:00 +28°C° 0.3 mm 5 mps 693 mmHg 37%
    02:00 +27°C° 0.3 mm 4 mps 693 mmHg 42%
    03:00 +26°C° 0.3 mm 4 mps 693 mmHg 46%
    04:00 +25°C° 0.3 mm 3 mps 693 mmHg 50%
    05:00 +26°C° 0 mm 4 mps 694 mmHg 47%
    06:00 +27°C° 0 mm 4 mps 694 mmHg 44%
    07:00 +27°C° 0 mm 4 mps 695 mmHg 40%
    08:00 +29°C° 0 mm 4 mps 695 mmHg 39%
    09:00 +30°C° 0 mm 3 mps 695 mmHg 38%
    10:00 +31°C° 0 mm 3 mps 695 mmHg 37%
    11:00 +33°C° 0 mm 3 mps 695 mmHg 34%
    12:00 +34°C° 0 mm 3 mps 694 mmHg 32%
    13:00 +35°C° 0 mm 3 mps 694 mmHg 30%
    14:00 +35°C° 0 mm 3 mps 694 mmHg 28%
    15:00 +35°C° 0 mm 3 mps 694 mmHg 27%
    16:00 +36°C° 0 mm 3 mps 693 mmHg 26%
    17:00 +35°C° 0.2 mm 3 mps 694 mmHg 29%
    18:00 +34°C° 0.2 mm 3 mps 694 mmHg 31%
    19:00 +33°C° 0.2 mm 3 mps 694 mmHg 33%
    20:00 +31°C° 0.1 mm 3 mps 695 mmHg 35%
    21:00 +31°C° 0.1 mm 3 mps 695 mmHg 37%
    22:00 +30°C° 0.1 mm 3 mps 696 mmHg 39%
    23:00 +29°C° 2.1 mm 3 mps 696 mmHg 44%

    24 January, Wednesday

    Time Temperature Precipitation Wind Pressure Humidity
    00:00 +28°C° 2.1 mm 4 mps 696 mmHg 50%
    01:00 +26°C° 2.1 mm 5 mps 696 mmHg 55%
    02:00 +24°C° 2.2 mm 6 mps 696 mmHg 59%
    03:00 +23°C° 2.2 mm 7 mps 696 mmHg 63%
    04:00 +22°C° 2.2 mm 7 mps 696 mmHg 67%
    05:00 +22°C° 0.4 mm 7 mps 697 mmHg 65%
    06:00 +22°C° 0.4 mm 7 mps 698 mmHg 64%
    07:00 +22°C° 0.4 mm 6 mps 699 mmHg 62%
    08:00 +23°C° 0 mm 6 mps 699 mmHg 60%
    09:00 +23°C° 0 mm 6 mps 699 mmHg 58%
    10:00 +24°C° 0 mm 6 mps 699 mmHg 56%
    11:00 +26°C° 0 mm 6 mps 699 mmHg 53%
    12:00 +27°C° 0 mm 6 mps 699 mmHg 51%
    13:00 +27°C° 0 mm 6 mps 699 mmHg 49%
    14:00 +27°C° 0.1 mm 6 mps 698 mmHg 49%
    15:00 +27°C° 0.1 mm 5 mps 698 mmHg 50%
    16:00 +27°C° 0.1 mm 5 mps 698 mmHg 51%
    17:00 +27°C° 0.2 mm 5 mps 698 mmHg 51%
    18:00 +26°C° 0.2 mm 4 mps 699 mmHg 52%
    19:00 +26°C° 0.2 mm 4 mps 699 mmHg 53%
    20:00 +25°C° 0.1 mm 3 mps 699 mmHg 54%
    21:00 +25°C° 0.1 mm 3 mps 700 mmHg 56%
    22:00 +24°C° 0.1 mm 3 mps 700 mmHg 58%
    23:00 +24°C° 0 mm 3 mps 699 mmHg 60%

    25 January, Thursday

    Time Temperature Precipitation Wind Pressure Humidity
    00:00 +22°C° 0 mm 3 mps 699 mmHg 62%
    01:00 +22°C° 0 mm 3 mps 698 mmHg 64%
    02:00 +22°C° 0 mm 3 mps 698 mmHg 65%
    03:00 +21°C° 0 mm 3 mps 698 mmHg 65%
    04:00 +21°C° 0 mm 3 mps 697 mmHg 65%
    05:00 +22°C° 0 mm 3 mps 697 mmHg 61%
    06:00 +22°C° 0 mm 3 mps 698 mmHg 56%
    07:00 +24°C° 0 mm 3 mps 698 mmHg 51%
    08:00 +25°C° 0 mm 3 mps 698 mmHg 47%
    09:00 +26°C° 0 mm 3 mps 698 mmHg 44%
    10:00 +28°C° 0 mm 3 mps 698 mmHg 40%
    11:00 +28°C° 0 mm 3 mps 697 mmHg 39%
    12:00 +29°C° 0 mm 3 mps 697 mmHg 38%
    13:00 +30°C° 0 mm 3 mps 696 mmHg 37%
    14:00 +30°C° 0 mm 3 mps 696 mmHg 37%
    15:00 +31°C° 0 mm 2 mps 695 mmHg 36%
    16:00 +31°C° 0 mm 2 mps 695 mmHg 35%
    17:00 +30°C° 0.1 mm 2 mps 695 mmHg 37%
    18:00 +30°C° 0.1 mm 2 mps 695 mmHg 39%
    19:00 +29°C° 0.1 mm 2 mps 696 mmHg 41%
    20:00 +28°C° 0 mm 2 mps 696 mmHg 44%
    21:00 +28°C° 0 mm 2 mps 696 mmHg 46%
    22:00 +28°C° 0 mm 2 mps 696 mmHg 48%
    23:00 +27°C° 0.1 mm 2 mps 695 mmHg 49%
    Show more